Regional Weather Roundup
Issued by NWS

Home | Current Version | Previous Version | Graphics & Text | Print | Product List | Glossary On
Versions: 1 2 3 4 5 6 7 8 9 10 11 12 13 14 15 16 17 18 19 20 21 22 23 24 25 26 27 28 29 30 31 32 33 34 35 36 37 38 39 40 41 42 43 44 45 46 47 48 49 50
000
ASUS43 KBIS 300510
RWRND

NORTH DAKOTA REGIONAL WEATHER ROUNDUP
NATIONAL WEATHER SERVICE BISMARCK ND
1200 AM CDT TUE MAY 30 2017

NOTE: "FAIR" INDICATES FEW OR NO CLOUDS BELOW 12,000 FEET WITH NO
SIGNIFICANT WEATHER AND/OR OBSTRUCTIONS TO VISIBILITY.


NDZ001>003-009>011-017-300600-
NORTHWEST NORTH DAKOTA

CITY           SKY/WX    TMP DP  RH WIND       PRES   REMARKS
WILLISTON      FAIR      50  30  46 NW13      30.06S
MINOT          FAIR      49  38  65 W8        30.01S
MINOT AFB      CLEAR     41  36  83 W5        30.01R
$$

NDZ018>021-031>035-040>046-300600-
SOUTHWEST NORTH DAKOTA

CITY           SKY/WX    TMP DP  RH WIND       PRES   REMARKS
BISMARCK       FAIR      52  39  61 N6        30.02R
DICKINSON      FAIR      40  29  64 W7        30.04S
GARRISON         N/A     42  36  79 N6        30.02R
HETTINGER ARPT CLEAR     40  30  67 CALM      30.08S
$$

NDZ004>008-012>016-024-026-027-054-300600-
NORTHEAST NORTH DAKOTA

CITY           SKY/WX    TMP DP  RH WIND       PRES   REMARKS
GRAND FORKS    CLOUDY    50  43  77 NW16      29.91S
GRND FRKS AFB  CLOUDY    48  42  80 N15       29.92S
DEVILS LAKE    CLOUDY    48  41  76 NW15      29.96S
$$

NDZ022-023-025-028>030-036>039-047>053-300600-
SOUTHEAST NORTH DAKOTA

CITY           SKY/WX    TMP DP  RH WIND       PRES   REMARKS
FARGO          CLOUDY    51  45  79 N8        29.92S
JAMESTOWN      MOCLDY    47  41  80 NW5       29.96S
$$





USA.gov is the U.S. government's official web portal to all federal, state and local government web resources and services.